SCP
3 3 3 3 3 3 3 3 3 3 2 2 2 1 1 1 1 1 1 1 1 1 1 1 1 1 1 1 1 1 1 1 1 1 1 1 1 1 1 0 0 0 0
3 3 3 3 3 3 4 4 3 3 2 2 2 1 1 1 1 1 1 1 1 1 1 1 1 1 1 1 1 1 1 1 1 1 1 1 1 1 1 1 0 0 0
3 3 3 3 3 3 3 3 3 3 3 2 2 2 2 2 2 2 2 2 1 1 1 1 1 1 1 1 1 2 2 1 1 1 1 1 1 1 1 1 1 0 0
3 3 3 3 3 3 3 3 3 3 3 2 2 2 2 2 2 2 2 2 2 1 1 1 2 2 2 1 1 2 2 2 1 1 1 1 1 1 1 1 1 0 0
3 3 3 3 3 3 3 3 3 3 3 2 2 2 2 2 2 2 2 2 2 2 2 2 2 2 2 2 2 2 2 2 2 2 1 1 1 1 1 1 1 1 0
2 2 2 2 2 2 2 2 2 2 2 2 2 2 2 2 2 2 2 2 2 2 2 2 2 2 2 2 2 2 2 2 2 2 2 1 1 1 1 1 1 1 1
2 2 2 2 2 2 2 2 3 3 3 3 3 2 2 2 2 2 2 2 2 2 2 2 3 3 3 2 2 2 2 2 2 2 2 2 1 1 1 1 1 1 1
1 2 2 2 2 2 2 2 3 4 4 5 4 3 3 2 2 2 2 2 2 2 3 3 3 3 3 3 2 2 2 2 2 2 2 2 1 1 1 1 1 1 1
1 1 1 1 2 2 2 2 2 3 4 5 6 5 4 2 2 2 1 2 2 3 3 3 3 3 3 3 3 2 2 2 2 2 2 2 2 1 1 1 1 1 1
1 1 1 1 1 2 2 2 2 2 3 4 6 6 5 4 3 2 1 1 2 2 3 3 3 3 3 3 3 2 2 2 2 2 2 2 2 2 2 1 1 1 1
0 0 1 1 1 1 2 2 2 2 2 3 4 5 5 4 3 2 2 1 2 2 2 3 3 3 3 3 3 2 2 2 2 2 2 2 2 2 2 1 1 1 1
1 1 1 1 1 1 1 1 2 1 1 1 2 3 3 3 3 2 2 2 2 2 2 3 3 3 3 3 3 2 2 1 1 2 2 2 2 2 2 1 1 1 1
1 1 1 1 1 1 1 1 1 1 1 1 1 1 2 2 2 2 2 2 1 1 2 2 3 3 3 3 3 2 2 1 1 1 1 2 2 2 2 1 1 1 1
1 1 1 1 1 1 1 1 1 1 1 1 1 1 1 1 1 1 1 1 1 1 1 2 2 2 3 3 3 2 2 1 1 1 1 1 2 2 2 1 1 1 1
0 0 0 0 1 1 1 1 1 1 1 1 1 1 1 1 1 1 1 1 1 1 1 1 2 2 3 3 2 3 2 1 1 0 1 1 1 1 1 1 1 1 1
0 0 0 0 0 1 1 1 1 1 2 2 1 1 1 1 1 1 1 1 1 1 1 2 2 2 2 2 2 3 3 2 1 0 0 0 1 1 1 1 1 1 1
0 0 0 0 0 0 1 1 1 1 1 2 1 1 1 1 1 1 1 1 1 1 1 2 2 3 3 3 2 3 3 2 2 1 0 0 0 0 0 0 0 0 0
0 0 0 0 0 0 0 0 1 1 1 1 1 1 1 1 1 1 1 1 1 1 1 2 2 3 3 3 3 3 3 2 2 1 0 0 0 0 0 0 0 0 0
0 0 0 0 0 0 0 0 0 1 1 1 1 1 1 1 1 1 1 1 1 1 1 1 2 2 3 3 3 3 2 3 2 1 0 0 0 0 0 0 0 0 0
0 0 0 0 0 0 0 0 0 0 1 1 1 1 1 1 1 1 1 1 1 1 1 1 1 2 2 3 3 3 2 3 3 2 1 1 0 0 0 0 0 0 0
0 0 0 0 0 0 0 0 0 0 0 1 1 1 1 1 1 0 0 1 1 1 1 1 1 2 2 2 3 2 2 3 3 2 2 2 1 1 1 0 0 0 0
0 0 0 0 0 0 0 0 0 0 0 0 1 1 1 0 0 0 0 0 0 1 1 1 1 2 2 2 2 2 2 2 2 3 3 2 2 2 2 1 0 0 0
0 0 0 0 0 0 0 0 0 0 0 0 1 1 1 0 0 0 0 0 0 0 1 1 1 1 2 3 3 3 2 2 2 3 3 3 3 3 2 1 1 0 0
0 0 0 0 0 0 0 0 0 0 0 0 0 0 0 0 0 0 0 0 0 0 0 1 1 1 1 2 3 3 3 3 3 3 2 2 3 3 2 2 1 0 0
0 0 0 0 0 0 0 0 0 0 0 0 0 0 0 0 0 0 0 0 0 0 0 0 0 0 1 1 2 2 2 2 3 2 2 2 2 2 2 2 1 0 0
0 0 0 0 0 0 0 0 0 0 0 0 0 0 0 0 0 0 0 0 0 0 0 0 0 0 0 0 1 1 2 2 2 3 2 2 2 2 2 1 1 0 0
Wind_Speed
4 4 4 4 5 5 5 6 6 7 8 8 8 10 10 9 9 8 5 12 13 14 15 16 16 17 17 17 17 16 16 16 15 13 13 14 14 14 13 13 12 11 11
4 4 5 5 5 5 5 5 7 6 7 7 9 10 10 9 9 10 9 9 14 14 16 16 17 18 19 19 19 18 17 17 15 14 14 14 14 14 13 13 13 12 11
4 4 4 4 4 4 5 6 7 6 6 8 10 11 9 10 10 11 11 8 10 15 17 17 17 17 19 20 20 20 18 17 16 16 15 14 14 14 14 13 13 13 12
3 4 4 4 3 4 5 5 6 6 7 7 8 8 8 8 12 11 11 10 9 9 15 19 18 18 19 21 21 21 20 19 18 18 17 16 15 15 15 14 14 13 13
3 3 3 3 3 4 4 6 5 5 6 7 8 8 8 9 10 11 12 13 11 10 10 13 19 18 19 21 22 22 21 21 20 19 19 18 17 16 16 15 15 14 14
3 3 3 3 4 4 4 4 5 5 6 6 8 8 8 9 9 10 13 12 12 14 14 12 12 15 20 20 21 22 23 22 22 21 21 20 19 18 17 16 16 15 15
3 3 4 2 4 5 5 5 5 6 6 5 6 7 8 11 11 10 11 11 13 14 13 13 11 11 12 20 21 22 23 23 22 22 22 21 20 19 18 18 17 16 16
4 4 4 5 4 4 5 5 5 6 5 5 5 6 6 7 9 11 10 11 13 12 13 14 14 13 11 10 15 23 23 24 23 23 22 22 21 20 19 19 18 17 17
4 5 5 5 5 6 5 5 6 8 6 5 6 5 5 6 4 6 9 10 11 10 11 11 14 15 15 11 11 20 23 22 23 24 24 22 21 20 20 20 20 19 18
5 5 5 5 6 6 5 7 6 6 7 7 5 6 7 6 5 5 5 7 10 10 12 11 13 14 15 12 12 14 22 22 23 24 24 23 22 22 21 21 22 21 20
5 5 6 5 6 6 6 7 6 7 6 7 6 5 6 6 7 7 7 6 6 8 10 11 10 10 12 13 11 16 19 22 22 23 23 23 23 23 23 23 24 23 22
5 5 6 6 7 6 6 7 7 9 8 8 7 6 6 6 6 6 8 7 6 6 7 8 9 9 10 12 16 16 19 21 21 22 22 23 23 23 23 24 25 24 24
6 5 6 6 7 7 7 7 8 9 9 9 8 7 7 7 6 6 7 7 8 6 6 6 7 7 9 9 10 14 17 20 20 20 21 21 22 22 23 23 24 24 23
7 7 8 8 8 8 9 8 8 9 8 9 10 9 7 7 6 6 6 7 8 7 7 7 5 6 7 7 9 13 14 18 19 19 19 19 20 21 21 21 21 21 21
8 8 8 9 9 9 9 9 8 9 8 10 10 10 9 7 7 7 7 6 7 8 8 6 5 5 6 6 7 10 12 16 18 18 18 19 19 19 19 19 19 19 18
8 9 9 9 9 9 9 9 10 8 9 9 8 9 9 8 7 7 7 7 6 7 8 5 4 4 5 6 6 9 11 14 17 17 18 18 18 18 18 18 18 18 17
8 9 9 9 9 9 9 9 10 10 10 10 10 10 10 10 8 7 7 7 7 7 8 7 5 4 5 6 5 6 8 9 10 15 16 16 16 16 17 17 17 17 16
9 9 9 9 10 10 9 10 11 11 11 11 10 10 10 9 9 8 7 8 7 7 7 8 6 5 6 6 5 5 6 8 8 12 14 14 14 14 14 15 15 15 15
9 9 9 10 10 10 10 10 10 10 11 11 10 10 10 10 9 8 8 8 7 7 7 7 6 4 4 4 4 5 4 3 6 9 11 12 12 13 13 13 13 13 13
9 9 9 9 10 10 10 10 10 10 10 10 10 10 10 10 10 9 8 9 8 7 7 7 6 5 4 5 5 5 4 4 4 5 6 7 10 11 12 12 12 12 12
9 9 9 9 9 9 8 8 9 10 10 10 10 9 10 9 8 8 8 7 7 7 7 6 5 5 4 5 5 4 5 4 4 4 5 6 7 8 9 11 11 11 11
9 9 9 9 9 7 4 5 9 11 11 11 10 9 9 9 9 9 10 9 8 8 8 6 5 5 5 5 4 5 5 6 4 5 5 5 5 6 6 7 9 11 11
9 9 9 9 9 7 3 6 8 11 12 10 10 8 8 7 7 9 10 11 10 9 8 8 7 5 5 4 5 6 6 6 5 6 5 5 5 5 4 6 11 10 10
8 8 8 9 9 6 3 6 8 11 12 11 10 9 9 7 7 7 8 8 8 7 8 8 6 5 4 4 4 4 4 4 3 4 5 4 4 4 4 5 9 9 9
8 8 8 8 9 7 3 5 8 9 9 10 9 8 8 8 4 5 7 7 7 6 4 3 1 1 1 1 3 3 5 5 4 4 4 4 5 4 4 4 7 8 8
8 8 8 8 8 8 3 4 7 8 8 7 6 6 5 6 3 4 7 8 8 7 6 6 5 4 5 5 5 6 6 6 5 4 5 5 6 6 4 3 5 7 7
Wind_Direction
250 248 249 249 251 250 238 234 240 242 239 236 235 235 239 238 241 234 204 177 196 209 215 213 210 207 204 201 200 199 198 197 193 190 187 184 182 180 179 176 174 171 169
262 259 255 252 252 253 259 256 249 246 244 240 239 238 238 237 240 239 237 200 201 211 217 216 214 213 210 205 203 202 201 201 197 193 192 190 187 185 184 183 181 178 176
260 252 252 250 256 257 256 257 257 251 248 244 241 239 236 237 238 237 239 236 215 208 214 218 217 217 215 209 207 204 202 202 199 196 196 194 191 189 188 188 186 184 182
268 261 257 255 255 258 258 257 255 250 246 248 246 242 238 235 238 237 237 233 235 227 210 213 215 215 216 214 210 207 204 203 201 199 198 198 196 193 192 192 191 188 187
288 275 269 263 252 256 257 259 253 250 248 244 245 239 239 237 236 237 235 234 230 232 231 203 207 213 216 215 213 210 207 206 204 202 201 201 201 198 196 196 194 193 191
308 295 266 262 263 255 251 251 259 252 258 253 253 252 242 238 234 233 233 231 228 227 228 228 208 211 214 213 212 212 209 208 207 205 204 204 204 202 199 199 197 197 196
323 300 300 283 264 259 260 257 258 251 247 246 251 252 245 238 235 233 231 231 227 226 227 227 226 220 208 208 209 209 209 209 207 207 206 205 205 203 202 201 200 200 199
325 302 315 294 283 274 257 258 256 266 257 238 252 261 257 237 226 228 226 226 229 225 224 222 223 223 224 208 203 204 208 209 208 209 208 205 205 204 203 204 203 202 202
321 322 312 301 297 280 272 268 261 258 261 252 241 255 264 261 264 228 227 231 229 228 228 225 222 221 218 219 206 201 206 207 207 210 210 207 205 204 204 205 206 205 204
314 310 305 301 294 287 279 265 257 265 264 264 245 242 259 286 281 271 239 229 227 229 232 231 227 219 217 216 213 204 199 202 204 208 210 209 207 205 205 207 208 208 208
301 303 302 300 294 284 284 281 280 268 266 269 269 257 249 247 249 263 266 252 236 232 230 229 231 227 219 217 215 211 193 198 202 205 208 210 210 207 208 209 211 212 212
297 304 300 298 287 288 286 278 275 264 265 269 272 266 258 255 250 253 263 264 259 248 238 235 232 227 223 218 218 209 191 195 200 203 206 208 209 209 210 211 213 214 215
304 319 312 301 294 290 283 279 271 272 267 261 259 260 261 260 264 264 269 273 270 264 252 242 235 232 228 220 216 200 194 193 197 201 205 207 208 208 209 210 212 213 215
311 319 303 293 290 286 282 278 274 265 261 259 258 260 260 257 255 256 261 270 271 262 248 242 235 231 235 226 216 199 202 193 196 199 201 205 206 205 205 206 209 211 212
300 304 299 291 287 284 281 278 270 271 270 264 260 250 248 252 249 250 251 255 265 268 258 247 238 229 231 232 214 210 213 192 194 197 200 203 204 204 203 204 205 207 209
301 298 294 292 288 283 276 272 272 263 263 263 262 266 261 257 253 250 250 248 249 262 268 263 253 256 243 239 219 220 216 190 192 195 199 201 202 201 200 200 200 201 203
299 292 291 290 287 283 279 273 271 273 266 265 263 257 254 255 256 254 248 248 248 247 260 267 258 255 244 241 229 222 213 201 190 189 193 196 196 196 195 195 196 196 199
293 292 291 288 285 283 280 276 273 273 268 265 262 261 260 255 247 252 252 250 250 250 255 263 262 248 239 230 221 217 210 201 192 175 182 186 188 188 189 189 190 192 196
296 294 290 285 285 286 281 276 274 274 271 268 265 260 257 256 253 250 249 249 248 248 247 257 259 248 236 218 209 207 198 192 188 166 168 173 177 180 183 184 185 186 190
300 299 295 291 288 286 284 280 276 275 274 271 266 260 256 252 250 247 248 245 247 251 247 248 252 243 225 206 196 186 181 177 174 164 158 162 164 170 176 179 181 184 187
303 305 300 296 291 285 284 295 292 282 277 272 266 260 256 254 269 267 265 257 249 245 245 240 242 240 223 198 194 183 173 160 159 159 154 159 163 172 173 173 175 176 178
308 305 301 299 295 294 358 333 296 289 282 273 269 263 257 241 238 238 253 264 269 257 254 247 238 237 230 212 196 185 170 162 166 169 163 162 165 168 172 171 159 164 170
309 305 302 299 295 298 296 283 278 281 277 273 270 264 259 248 230 238 226 226 237 245 250 255 249 243 234 218 200 194 191 181 168 160 159 156 164 160 160 132 141 155 163
310 307 305 302 298 300 279 276 279 269 269 266 262 259 257 259 248 251 244 234 232 224 224 230 239 242 245 234 217 203 194 172 148 161 167 160 164 154 145 134 140 151 159
310 308 305 303 301 302 292 281 283 277 269 267 263 257 252 246 227 236 241 240 235 227 208 197 233 245 279 238 231 207 187 174 170 172 183 163 153 143 143 142 139 149 154
306 307 307 303 301 303 303 282 286 283 283 278 265 252 236 240 215 223 238 239 234 228 223 194 193 204 211 209 212 222 210 192 177 173 182 171 158 154 151 153 154 161 157